When you browse on this site, cookies collect data to enhance your experience and personalize the content and advertising you see.
Visit our Privacy Policy to learn more. By continuing to use the site, you agree to this use of cookies and data.
  • In Portugal
  • List of Countries
  • For 7 days
  • Water Temperature
  • Satellite Maps
  • Weather Map
  • Weather Widgets
  • user-avatar
    Login

    Hourly Weather Mansa

    Today, 25 May, Saturday

    Time Temperature Precipitation Wind Pressure Humidity
    00:00 +18°C° 0 mm 3 mps 661 mmHg 73%
    01:00 +17°C° 0 mm 3 mps 661 mmHg 75%
    02:00 +16°C° 0 mm 3 mps 661 mmHg 77%
    03:00 +16°C° 0 mm 3 mps 661 mmHg 78%
    04:00 +16°C° 0 mm 3 mps 661 mmHg 80%
    05:00 +14°C° 0 mm 3 mps 661 mmHg 82%
    06:00 +16°C° 0 mm 3 mps 661 mmHg 80%
    07:00 +17°C° 0 mm 3 mps 662 mmHg 78%
    08:00 +19°C° 0 mm 4 mps 662 mmHg 74%
    09:00 +20°C° 0 mm 3 mps 663 mmHg 69%
    10:00 +22°C° 0 mm 3 mps 663 mmHg 63%
    11:00 +25°C° 0 mm 3 mps 663 mmHg 58%
    12:00 +26°C° 0 mm 3 mps 662 mmHg 55%
    13:00 +27°C° 0 mm 3 mps 662 mmHg 52%
    14:00 +28°C° 0 mm 2 mps 662 mmHg 49%
    15:00 +27°C° 0 mm 2 mps 661 mmHg 53%
    16:00 +26°C° 0 mm 2 mps 661 mmHg 57%
    17:00 +25°C° 0 mm 2 mps 660 mmHg 61%
    18:00 +24°C° 0 mm 2 mps 660 mmHg 65%
    19:00 +21°C° 0 mm 2 mps 660 mmHg 70%
    20:00 +19°C° 0 mm 3 mps 661 mmHg 74%
    21:00 +19°C° 0 mm 3 mps 661 mmHg 75%
    22:00 +18°C° 0 mm 3 mps 661 mmHg 77%
    23:00 +18°C° 0 mm 3 mps 661 mmHg 78%

    Tomorrow, 26 May, Sunday

    Time Temperature Precipitation Wind Pressure Humidity
    00:00 +17°C° 0 mm 3 mps 661 mmHg 80%
    01:00 +17°C° 0 mm 3 mps 661 mmHg 82%
    02:00 +16°C° 0 mm 3 mps 661 mmHg 84%
    03:00 +16°C° 0 mm 3 mps 661 mmHg 85%
    04:00 +16°C° 0 mm 3 mps 661 mmHg 86%
    05:00 +16°C° 0 mm 3 mps 661 mmHg 87%
    06:00 +16°C° 0 mm 3 mps 661 mmHg 84%
    07:00 +17°C° 0 mm 3 mps 661 mmHg 82%
    08:00 +18°C° 0 mm 4 mps 662 mmHg 79%
    09:00 +19°C° 0 mm 4 mps 662 mmHg 73%
    10:00 +21°C° 0 mm 3 mps 662 mmHg 67%
    11:00 +24°C° 0 mm 3 mps 663 mmHg 61%
    12:00 +25°C° 0 mm 3 mps 662 mmHg 57%
    13:00 +26°C° 0 mm 3 mps 662 mmHg 54%
    14:00 +27°C° 0 mm 2 mps 661 mmHg 50%
    15:00 +26°C° 0 mm 2 mps 661 mmHg 55%
    16:00 +26°C° 0 mm 2 mps 660 mmHg 59%
    17:00 +25°C° 0 mm 2 mps 660 mmHg 63%
    18:00 +23°C° 0 mm 2 mps 660 mmHg 67%
    19:00 +21°C° 0 mm 2 mps 660 mmHg 72%
    20:00 +19°C° 0 mm 2 mps 660 mmHg 77%
    21:00 +19°C° 0 mm 2 mps 661 mmHg 77%
    22:00 +18°C° 0 mm 3 mps 661 mmHg 78%
    23:00 +18°C° 0 mm 3 mps 661 mmHg 79%

    Day after tomorrow, 27 May, Monday

    Time Temperature Precipitation Wind Pressure Humidity
    00:00 +18°C° 0 mm 3 mps 661 mmHg 81%
    01:00 +17°C° 0 mm 3 mps 660 mmHg 83%
    02:00 +16°C° 0 mm 3 mps 660 mmHg 86%
    03:00 +16°C° 0 mm 3 mps 660 mmHg 85%
    04:00 +16°C° 0 mm 3 mps 660 mmHg 84%
    05:00 +16°C° 0 mm 3 mps 660 mmHg 84%
    06:00 +17°C° 0 mm 3 mps 661 mmHg 81%
    07:00 +17°C° 0 mm 4 mps 661 mmHg 79%
    08:00 +18°C° 0 mm 4 mps 662 mmHg 76%
    09:00 +20°C° 0 mm 4 mps 662 mmHg 69%
    10:00 +22°C° 0 mm 4 mps 662 mmHg 62%
    11:00 +25°C° 0 mm 3 mps 663 mmHg 56%
    12:00 +26°C° 0 mm 3 mps 662 mmHg 53%
    13:00 +26°C° 0 mm 3 mps 661 mmHg 51%
    14:00 +27°C° 0 mm 2 mps 661 mmHg 48%
    15:00 +26°C° 0 mm 2 mps 660 mmHg 52%
    16:00 +26°C° 0 mm 2 mps 660 mmHg 56%
    17:00 +25°C° 0 mm 2 mps 659 mmHg 61%
    18:00 +23°C° 0 mm 2 mps 660 mmHg 64%
    19:00 +20°C° 0 mm 2 mps 660 mmHg 68%
    20:00 +19°C° 0 mm 2 mps 660 mmHg 72%
    21:00 +18°C° 0 mm 2 mps 660 mmHg 73%
    22:00 +18°C° 0 mm 2 mps 660 mmHg 73%
    23:00 +18°C° 0 mm 2 mps 660 mmHg 74%

    28 May, Tuesday

    Time Temperature Precipitation Wind Pressure Humidity
    00:00 +17°C° 0 mm 2 mps 660 mmHg 75%
    01:00 +17°C° 0 mm 2 mps 660 mmHg 77%
    02:00 +17°C° 0 mm 2 mps 660 mmHg 79%
    03:00 +16°C° 0 mm 2 mps 660 mmHg 79%
    04:00 +16°C° 0 mm 3 mps 660 mmHg 79%
    05:00 +16°C° 0 mm 3 mps 660 mmHg 79%
    06:00 +17°C° 0 mm 3 mps 660 mmHg 75%
    07:00 +17°C° 0 mm 3 mps 661 mmHg 72%
    08:00 +18°C° 0 mm 4 mps 662 mmHg 68%
    09:00 +20°C° 0 mm 4 mps 662 mmHg 62%
    10:00 +22°C° 0 mm 3 mps 662 mmHg 57%
    11:00 +25°C° 0 mm 3 mps 662 mmHg 51%
    12:00 +26°C° 0 mm 3 mps 662 mmHg 49%
    13:00 +27°C° 0 mm 2 mps 661 mmHg 46%
    14:00 +28°C° 0 mm 2 mps 660 mmHg 44%
    15:00 +27°C° 0 mm 2 mps 660 mmHg 48%
    16:00 +26°C° 0 mm 2 mps 660 mmHg 52%
    17:00 +25°C° 0 mm 1 mps 659 mmHg 57%
    18:00 +23°C° 0 mm 1 mps 659 mmHg 61%
    19:00 +22°C° 0 mm 1 mps 660 mmHg 65%
    20:00 +20°C° 0 mm 1 mps 660 mmHg 69%
    21:00 +19°C° 0 mm 1 mps 660 mmHg 69%
    22:00 +19°C° 0 mm 1 mps 660 mmHg 70%
    23:00 +18°C° 0 mm 2 mps 660 mmHg 71%

    29 May, Wednesday

    Time Temperature Precipitation Wind Pressure Humidity
    00:00 +17°C° 0 mm 2 mps 660 mmHg 72%
    01:00 +17°C° 0 mm 2 mps 660 mmHg 74%
    02:00 +16°C° 0 mm 2 mps 659 mmHg 76%
    03:00 +16°C° 0 mm 2 mps 659 mmHg 77%
    04:00 +16°C° 0 mm 2 mps 659 mmHg 78%
    05:00 +15°C° 0 mm 2 mps 659 mmHg 80%
    06:00 +16°C° 0 mm 2 mps 660 mmHg 76%
    07:00 +17°C° 0 mm 3 mps 661 mmHg 72%
    08:00 +18°C° 0 mm 3 mps 662 mmHg 69%
    09:00 +20°C° 0 mm 3 mps 662 mmHg 62%
    10:00 +22°C° 0 mm 3 mps 662 mmHg 56%
    11:00 +26°C° 0 mm 3 mps 662 mmHg 49%
    12:00 +26°C° 0 mm 2 mps 662 mmHg 47%
    13:00 +27°C° 0 mm 2 mps 661 mmHg 45%
    14:00 +28°C° 0 mm 2 mps 660 mmHg 42%
    15:00 +27°C° 0 mm 2 mps 660 mmHg 47%
    16:00 +26°C° 0 mm 1 mps 660 mmHg 52%
    17:00 +25°C° 0 mm 1 mps 659 mmHg 56%
    18:00 +24°C° 0 mm 1 mps 659 mmHg 59%
    19:00 +22°C° 0 mm 1 mps 659 mmHg 63%
    20:00 +20°C° 0 mm 1 mps 660 mmHg 66%
    21:00 +20°C° 0 mm 1 mps 660 mmHg 67%
    22:00 +20°C° 0 mm 1 mps 660 mmHg 68%
    23:00 +18°C° 0 mm 2 mps 660 mmHg 68%

    30 May, Thursday

    Time Temperature Precipitation Wind Pressure Humidity
    00:00 +18°C° 0 mm 2 mps 660 mmHg 70%
    01:00 +18°C° 0 mm 2 mps 660 mmHg 71%
    02:00 +17°C° 0 mm 2 mps 659 mmHg 73%
    03:00 +17°C° 0 mm 2 mps 659 mmHg 74%
    04:00 +16°C° 0 mm 2 mps 659 mmHg 76%
    05:00 +16°C° 0 mm 2 mps 659 mmHg 78%
    06:00 +17°C° 0 mm 2 mps 660 mmHg 74%
    07:00 +18°C° 0 mm 3 mps 661 mmHg 71%
    08:00 +19°C° 0 mm 3 mps 662 mmHg 68%
    09:00 +21°C° 0 mm 3 mps 662 mmHg 61%
    10:00 +24°C° 0 mm 3 mps 662 mmHg 54%
    11:00 +26°C° 0 mm 2 mps 662 mmHg 48%
    12:00 +27°C° 0 mm 2 mps 662 mmHg 45%
    13:00 +29°C° 0 mm 1 mps 661 mmHg 43%
    14:00 +30°C° 0 mm 1 mps 661 mmHg 40%
    15:00 +28°C° 0 mm 1 mps 660 mmHg 46%
    16:00 +27°C° 0 mm 1 mps 660 mmHg 52%
    17:00 +25°C° 0 mm 1 mps 659 mmHg 57%
    18:00 +24°C° 0 mm 1 mps 659 mmHg 59%
    19:00 +23°C° 0 mm 1 mps 660 mmHg 60%
    20:00 +22°C° 0 mm 1 mps 660 mmHg 62%
    21:00 +21°C° 0 mm 1 mps 660 mmHg 62%
    22:00 +21°C° 0 mm 1 mps 660 mmHg 62%
    23:00 +21°C° 0 mm 1 mps 660 mmHg 62%
    Show more